Flag for Brazil Weather past 2 weeks in Jequié, Bahia, Brazil

Now
77 °F

Passing clouds.


Feels Like: 79 °F
Forecast: 63 / 82 °F
Wind: 9 mph from Southeast

Location: Salvador Aeroporto

Current Time: Jul 2, 2015 at 5:51:59 AM

Latest Report: Jul 2, 2015 at 5:00 AM


Visibility: N/A

Pressure: 30.04 "Hg

Humidity: 65%

Dew point: 64 °F

Location of JequiéLocation

Historic Weather in Jequié — Graph

°F

Jequié temperature yesterday

Maximum temperature yesterday: 81 °F (at 10:00 AM)
Minimum temperature yesterday: 75 °F (at 5:00 PM)
Average temperature yesterday: 78 °F

Past Weeks' High & Low Weather Summary

 TemperatureHumidityPressure
High84 °F (Jun 20, 12:00 PM)100% (Jun 19, 4:00 PM)30.24 "Hg (Jun 19, 4:00 PM)
Low36 °F (Jun 28, 3:00 AM)48% (Jun 20, 12:00 PM)29.98 "Hg (Jun 17, 3:00 PM)
Average76 °F74%30.09 "Hg
* Reported Jun 17 4:00 AM — Jul 2 4:00 AM, Jequié, Weather by CustomWeather, © 2015

Note: Actual official high and low records may vary slightly from our data, if they occured in-between our weather recording intervals... More about our weather records

Advertising

Jequié weather history for previous 24 hours

 ConditionsComfort  
Time TempWeatherWind HumidityBarometerVisibility
4:00 AM
Thu, Jul 2
77 °FPassing clouds.9 mph69%30.01 "HgN/A
3:00 AM77 °FPassing clouds.10 mph69%30.01 "HgN/A
2:00 AM77 °FPassing clouds.7 mph69%30.04 "HgN/A
1:00 AM77 °FPassing clouds.8 mph69%30.04 "HgN/A
12:00 AM77 °FPassing clouds.7 mph69%30.07 "HgN/A
11:00 PM
Wed, Jul 1
79 °FPassing clouds.7 mph70%30.07 "HgN/A
10:00 PM77 °FPassing clouds.9 mph69%30.09 "HgN/A
9:00 PM77 °FPassing clouds.9 mph69%30.09 "HgN/A
8:00 PM77 °FPassing clouds.8 mph69%30.07 "HgN/A
7:00 PM77 °FPartly cloudy.7 mph69%30.07 "HgN/A
6:00 PM77 °FPartly cloudy.7 mph65%30.07 "HgN/A
5:00 PM75 °FBroken clouds.2 mph78%30.04 "HgN/A
4:00 PM79 °FBroken clouds.8 mph65%30.04 "HgN/A
3:00 PM79 °FBroken clouds.6 mph70%30.04 "HgN/A
2:00 PM79 °FBroken clouds.6 mph70%30.04 "HgN/A
1:00 PM79 °FBroken clouds.7 mph70%30.07 "HgN/A
12:00 PM81 °FBroken clouds.9 mph62%30.09 "HgN/A
11:00 AM81 °FBroken clouds.8 mph66%30.12 "HgN/A
10:00 AM81 °FBroken clouds.10 mph62%30.12 "HgN/A
9:00 AM79 °FBroken clouds.9 mph65%30.12 "HgN/A
8:00 AM79 °FBroken clouds.8 mph65%30.09 "HgN/A
7:00 AM77 °FBroken clouds.9 mph65%30.07 "HgN/A
6:00 AM77 °FBroken clouds.9 mph69%30.07 "HgN/A
5:00 AM77 °FPassing clouds.9 mph69%30.04 "HgN/A
Weather by CustomWeather, © 2015

See weather overviewHow to use our weather pages